Weather in Kukuyevka

Russia / Oryol Oblast     53°06′22″N   35°22′10″E
temp.,
°C
wind,
m/s
gust,
m/s
humid.,
%
clouds,
%
prec.,
mm/h
press.,
hPa
HPBL,
m
25 october, mon
mon2500:000nw410855 0.0 1028317
03:00−2nw38955 0.0 1029215
06:00−2nnw36968 0.0 1031138
09:00−1nnw2485100 0.0 1032215
12:00+3wnw235999 0.0 1033717
15:00+4w34495 0.0 1032856
18:00+1wsw33645 0.0 103230
21:00−1sw35725 0.0 103276
26 october, tue
tue2600:00−1sw37755 0.0 1032128
03:00−1sw4107777 0.0 1031180
06:00−1sw41076100 0.0 1030193
09:00+1sw5116599 0.0 1030287
12:00+5sw61051100 0.0 1029515
15:00+7sw61150100 0.0 1027654
18:00+3ssw412625 0.0 1026265
21:00+2sw5146458 0.0 1026316
27 october, wed
wed2700:00+2sw5146872 0.0 1026289
03:00+1ssw513717 0.0 1025261
06:00+1ssw513734 0.0 1025253
09:00+2sw614695 0.0 1024359
12:00+7sw713620 0.0 1023649
15:00+9sw71265100 0.0 1022898
18:00+6wsw5127990 0.0 1023428
21:00+4wsw41191100 0.0 1023255
28 october, thu
thu2800:00+4wsw41084100 0.0 1023215
03:00+4wsw4987100 0.0 1023213
06:00+4wsw499477 0.0 1023185
09:00+5wsw5129166 0.0 1023343
12:00+8wsw71377100 0.0 1022528
15:00+9wsw61372100 0.0 1021645
18:00+9w6127697 0.0 1021554
21:00+9w61183100 0.0 1021530
29 october, fri
fri2900:00+8w41091100 0.0 1022386
03:00+8w4895100 0.4 1022311
06:00+8w3796100 0.5 1023264
09:00+8w3697100 0.8 1024237
12:00+9wnw2494100 0.0 1025227
15:00+10nw2493100 0.0 1026214
18:00+9n1196100 0.0 102717
21:00+9ene1196100 0.0 102712